Location: *
(33.3200°N, 8.3381°W)
Time: 13:25:04
(UTC+00:00)

CZ-2C R/B - Pass Details

Date: 09 April 2020
Orbit: 705 x 907 km, 98.1° (Epoch: 04 June)

Event Time Altitude Azimuth Distance (km) Brightness Sun altitude
Exits shadow 20:10:44 - 162° (SSE) 2,379 5.2 -15.1°
Reaches altitude 10° 20:11:04 10° 162° (SSE) 2,246 5.1 -15.2°
Maximum altitude 20:15:58 77° 76° (ENE) 743 2.8 -16.1°
Drops below altitude 10° 20:20:44 10° 351° (N) 2,187 5.8 -17.0°
Sets 20:22:58 0° 350° (N) 3,103 6.6 -17.5°
